This is the latest recevied weather packets stored in our database for station/object KD4EED. If no packets are shown the sender has not sent any weather packets the latest 10 day(s).
| Time | Temp. | Humidity | Pressure | Rain* | Wind** | Luminosity | Snow |
|---|---|---|---|---|---|---|---|
| 1788631686 | 27.22° C | 56% | 1012.1 hPa | - | - | 526 W/m² | - |
| 1788631381 | 26.11° C | 53% | 1012.1 hPa | - | - | 523 W/m² | - |
| 1788631075 | 25.56° C | 54% | 1012.2 hPa | - | - | 547 W/m² | - |
| 1788630770 | 25.56° C | 55% | 1012.2 hPa | - | - | 497 W/m² | - |
| 1788630465 | 25° C | 55% | 1011.9 hPa | - | - | 401 W/m² | - |
| 1788630161 | 25° C | 58% | 1012 hPa | - | - | 47 W/m² | - |
| 1788629858 | 24.44° C | 60% | 1011.9 hPa | - | - | 44 W/m² | - |
| 1788629560 | 23.89° C | 61% | 1011.8 hPa | - | - | 43 W/m² | - |
| 1788629253 | 23.89° C | 62% | 1011.9 hPa | - | - | 41 W/m² | - |
| 1788628952 | 23.89° C | 64% | 1012 hPa | - | - | 41 W/m² | - |
| 1788628648 | 23.33° C | 64% | 1012 hPa | - | - | 39 W/m² | - |
| 1788628345 | 23.33° C | 66% | 1011.9 hPa | - | - | 38 W/m² | - |
| 1788628041 | 22.78° C | 67% | 1012 hPa | - | - | 37 W/m² | - |
| 1788627741 | 22.78° C | 68% | 1011.8 hPa | - | - | 37 W/m² | - |
| 1788627435 | 22.22° C | 69% | 1011.9 hPa | - | - | 36 W/m² | - |
| 1788627131 | 22.22° C | 70% | 1012 hPa | - | - | 36 W/m² | - |
| 1788626831 | 21.67° C | 72% | 1011.7 hPa | - | - | 35 W/m² | - |
| 1788626531 | 21.67° C | 72% | 1011.9 hPa | - | - | 34 W/m² | - |
| 1788626226 | 21.11° C | 74% | 1011.9 hPa | - | - | 33 W/m² | - |
| 1788625923 | 21.11° C | 76% | 1011.9 hPa | - | - | 33 W/m² | - |
| 1788625619 | 21.11° C | 77% | 1011.9 hPa | - | - | 33 W/m² | - |
| 1788625318 | 20.56° C | 80% | 1011.8 hPa | - | - | 32 W/m² | - |
| 1788625014 | 20° C | 83% | 1011.8 hPa | - | - | 32 W/m² | - |
| 1788624711 | 19.44° C | 87% | 1011.7 hPa | - | - | 31 W/m² | - |
| 1788624404 | 18.89° C | 89% | 1011.7 hPa | - | - | 30 W/m² | - |
* Rain since midnight (hover to see other rain measurements)
** Current wind speed in m/s (hover to see current wind gust speed)